OE3XAM-13 Weather Reports


time (UTC)temp
C
wind
direction
speed
KPH
gust
KPH
rain 1hr
cm
rain 24hr
cm
rain mn
cm
humidity
%
barometer
mb
20260905234128 16 0 1.6 0.0 0.00 0.89 0.00 76 989.0
20260905231128 16 0 1.6 0.0 0.00 0.89 0.00 76 989.0
20260905224128 15 0 1.6 0.0 0.00 0.89 0.00 75 988.0
20260905221128 15 0 3.2 0.0 0.00 0.89 0.00 75 988.0
20260905214128 15 0 3.2 0.0 0.00 0.89 0.89 74 987.0
20260905211128 16 0 4.8 0.0 0.00 0.89 0.89 70 988.0
20260905204128 17 0 1.6 0.0 0.00 0.89 0.89 67 988.0
20260905201128 17 0 1.6 0.0 0.00 0.89 0.89 63 987.0
20260905194128 19 0 3.2 0.0 0.00 0.89 0.89 56 987.0
20260905191128 20 0 1.6 0.0 0.00 0.89 0.89 53 986.0
20260905184128 20 0 3.2 0.0 0.00 0.89 0.89 53 986.0
20260905181128 20 0 3.2 0.0 0.00 0.89 0.89 50 986.0
20260905174128 21 0 6.4 0.0 0.00 0.89 0.89 51 986.0
20260905171128 21 0 1.6 0.0 0.00 0.89 0.89 50 985.0
20260905164128 22 0 4.8 0.0 0.00 0.89 0.89 46 986.0
20260905161128 23 0 1.6 0.0 0.00 0.89 0.89 47 985.0
20260905154128 24 0 8.0 0.0 0.00 0.89 0.89 45 985.0
20260905151128 25 0 8.0 0.0 0.00 0.89 0.89 43 985.0
20260905144128 25 0 6.4 0.0 0.00 0.89 0.89 43 985.0
20260905141128 25 0 12.9 0.0 0.00 0.89 0.89 42 985.0
20260905134128 25 0 20.9 0.0 0.00 0.89 0.89 44 985.0
20260905131128 24 0 8.0 0.0 0.00 0.89 0.89 45 986.0
20260905124128 23 0 9.7 0.0 0.00 0.89 0.89 50 986.0
20260905121128 23 0 6.4 0.0 0.00 0.89 0.89 50 986.0
20260905114128 22 0 6.4 0.0 0.00 0.89 0.89 54 986.0
20260905111128 22 0 11.3 0.0 0.00 0.89 0.89 60 986.0
20260905104128 21 0 12.9 0.0 0.00 0.89 0.89 61 986.0
20260905101128 20 0 1.6 0.0 0.00 0.89 0.89 71 986.0
20260905094128 17 0 4.8 0.0 0.00 0.89 0.89 81 986.0
20260905091128 16 0 4.8 0.0 0.13 0.89 0.89 82 986.0
20260905084128 16 0 0.0 0.0 0.23 0.86 0.86 83 987.0
20260905081128 16 0 1.6 0.0 0.25 0.74 0.74 82 987.0
20260905074128 15 0 1.6 0.0 0.23 0.53 0.53 82 987.0
20260905071128 15 0 4.8 0.0 0.15 0.43 0.43 80 986.0
20260905064128 16 0 1.6 0.0 0.05 0.28 0.28 79 986.0
20260905061128 16 0 1.6 0.0 0.20 0.23 0.23 79 985.0
20260905054128 17 0 3.2 0.0 0.03 0.05 0.05 69 984.0
20260905051128 20 0 0.0 0.0 0.00 0.00 0.00 54 983.0
20260905044128 21 0 4.8 0.0 0.00 0.00 0.00 59 982.0
20260905041128 21 0 1.6 0.0 0.00 0.00 0.00 65 980.0
20260905034128 21 0 0.0 0.0 0.00 0.00 0.00 64 981.0
20260905031128 21 0 1.6 0.0 0.00 0.00 0.00 63 981.0
20260905024128 21 0 1.6 0.0 0.00 0.00 0.00 64 980.0
20260905021128 21 0 9.7 0.0 0.00 0.00 0.00 64 980.0
20260905014128 21 0 1.6 0.0 0.00 0.00 0.00 60 979.0
20260905011128 20 0 1.6 0.0 0.00 0.00 0.00 59 979.0
20260905004128 21 0 3.2 0.0 0.00 0.00 0.00 58 979.0
20260905001128 21 0 4.8 0.0 0.00 0.00 0.00 55 978.0